STARLINK-32343, 61712

Orbit data source: Space-Track

STARLINK-32343, 61712 is a payload satellite owned by SpaceX/Seattle (US) in LEO that was launched on Wed, 30 Oct 2024 UTC via an FALCON 9 launch vehicle from the Air Force Eastern Test Range (AFETR). Payload-class satellites include a variety of spacecraft equipped with specific instruments for various scientific and technological missions. These include communications satellites like Starlink; space stations such as the ISS; scientific satellites like the Hubble; Earth observation satellites from companies like Planet Labs, Umbra, and HawkEye 360; GPS; miniature CubeSats for education and research; and military/defense satellites.

Loading next visibility...
Identifier
61712, 2024-196F
Orbit
LEO
Last TLE update
20 hours ago
Origin
Manufacturer
SpaceX/Seattle
Mission
Operational Commercial Communications
Bus & Motor
STARLINK V2M, Unknown motor
Mass
730 kg wet, ~700 kg dry
Launch date (UTC)
2024-10-30 (8 months ago)
Launch vehicle
FALCON 9
Launch site
Air Force Eastern Test Range (AFETR)
Object type
Payload
Rocket body
Debris
Shape & HBR
Box + 2 Pan, 29 m
Radar Cross Section
36.964 m², Large (>1 m²)

Expand to show TLE details & history

TLE from 20 hours ago
0 STARLINK-32343
1 61712U 24196F   25182.34796344 -.00000424  00000-0 -22051-5 0  9994
2 61712  53.1604 188.8957 0001250  85.5902 274.5241 15.30190356 38460
Epoch: 2025-07-01T08:21Z
TLE epoch observation values (Epoch: 2025-07-01T08:21:04.041Z)
Latitude
-0.00005°
Longitude
143.98411°
Altitude
476.076 km
Speed
7.629 km/s
True Right ascension
12h 35m 34s
True Declination
0° 00' 00"
Sunlit
Object was in daylight at epoch
Visualization orbit readout
Latitude
-24.65426°
Longitude
120.06929°
Altitude
482.812 km
Speed
7.624 km/s
Apparent Right ascension
08h 11m 32s
Apparent Declination
-43° 55' 51"
Sunlit
Object is in daylight
Visualization observer readout
Local Sidereal Time
16:17:01
Azimuth
244.632° WSW
Elevation
-47.117°
Doppler factor
1
Orbital elements
Apogee altitude
476.357 km
Perigee altitude
474.644 km
Semi-major axis
6,853.637 km
Eccentricity
0.00013
Inclination
53.1604°
RAAN
188.8957°
Arg. of periapsis
85.5902°
True anomaly
Unknown
Mean anomaly
274.5241°
Eccentric anomaly
Unknown
Mean motion
3.82526 °/min
Orbital period
94.11 mins
BSTAR
-0.0000022051
Loading maneuver chart data...
Loading SW <> Apogee altitude chart data...
Loading historical data...
Loading historical data...
Loading historical data...
Loading historical data...
Loading historical data...
Loading historical data...
Loading historical data...

STARLINK-32343 Visibility forecast

Observer location: undefined°, undefined°

Span
Click to sort rows by Start time (UTC) header in descending order
Start Az.
Max El. time (UTC)
Max El. Az.
Max El.
End time (UTC)
End Az.
4 mins2025-07-02 05:00:35.689Z306.547° NW2025-07-02 05:02:35.689Z344.044° N15.993°2025-07-02 05:04:35.689Z18.725° NNE
4 mins2025-07-02 08:18:35.689Z342.938° N2025-07-02 08:20:35.689Z20.204° NNE17.53°2025-07-02 08:22:35.689Z58.966° ENE
6 mins2025-07-02 09:56:35.689Z309.878° NW2025-07-02 09:58:35.689Z308.756° NW42.874°2025-07-02 10:02:35.689Z131.361° SE
5 mins2025-07-03 02:52:35.689Z231.631° WSW2025-07-03 02:54:35.689Z21.037° NNE44.746°2025-07-03 02:57:35.689Z49.11° ENE
|